Location: Betpouey
(42.8833°N, 0.0333°E)
Time: 04:44:17
(UTC+00:00)

deb Delta - Visible Passes

Search period start: 15 June 2021 00:00
Search period end: 25 June 2021 00:00
Orbit: 987 x 1433 km, 99.5° (Epoch: 14 June)

Date Brightness Start Highest point End Pass type
(mag) Time Alt. Az. Time Alt. Az. Time Alt. Az.
15 Jun ? 21:14:12 10° NNW 21:18:50 19° NW 21:23:12 10° W visible
16 Jun ? 21:00:01 10° N 21:05:12 24° WNW 21:10:05 10° WSW visible
17 Jun ? 20:45:55 10° N 20:51:32 29° WNW 20:56:49 10° WSW visible
18 Jun ? 03:46:57 10° NE 03:47:59 10° NE 03:49:00 10° NE visible
18 Jun ? 20:31:51 10° N 20:37:50 35° WNW 20:43:25 10° SW visible
19 Jun ? 20:17:51 10° N 20:24:07 43° WNW 20:29:56 10° SW visible
21 Jun ? 21:40:50 10° NNW 21:43:11 12° NW 21:45:28 10° WNW visible
22 Jun ? 21:26:09 10° NNW 21:29:36 15° NW 21:32:57 10° W visible
23 Jun ? 21:11:46 10° NNW 21:15:59 18° NW 21:20:03 10° W visible
24 Jun ? 20:57:31 10° N 21:02:21 22° WNW 21:06:58 10° WSW visible
